Regional Weather Roundup
Issued by NWS

Home | Current Version | Previous Version | Graphics & Text | Print | Product List | Glossary Off
Versions: 1 2 3 4 5 6 7 8 9 10 11 12 13 14 15 16 17 18 19 20 21 22 23 24 25 26 27 28 29 30 31 32 33 34 35 36 37 38 39 40 41 42 43 44 45 46 47 48 49 50

952
ASUS43 KLSX 160607
RWRMO

WEATHER SUMMARY FOR MISSOURI
NATIONAL WEATHER SERVICE SPRINGFIELD MO
1200 AM CST SAT DEC 16 2017

NOTE: "FAIR" INDICATES FEW OR NO CLOUDS BELOW 12,000 FEET WITH NO
       SIGNIFICANT WEATHER AND/OR OBSTRUCTIONS TO VISIBILITY.
       CURRENT SKY AND/OR WEATHER CONDITIONS ARE NOT AVAILABLE FOR
       CHILLICOTHE AND FARMINGTON.

MOZ001>031-035>038-043-044-053-054-160700-
...NORTHERN AND WESTERN MISSOURI...

CITY           SKY/WX    TMP DP  RH WIND       PRES   REMARKS
KANSAS CTY INT CLOUDY    39  25  57 SW16      29.90F
6HR MIN TEMP:  38; 6HR MAX TEMP:  42;

KANSAS C DTWN  CLEAR     44  25  47 SW16G24   29.92F
6HR MIN TEMP:  39; 6HR MAX TEMP:  45;

LEE`S SUMMIT   CLEAR     40  25  55 SW17      29.93F
6HR MIN TEMP:  38; 6HR MAX TEMP:  41;

ST JOSEPH      CLOUDY    40  27  59 SW15      29.87F
6HR MIN TEMP:  39; 6HR MAX TEMP:  41;

CHILLICOTHE      N/A     35  24  64 S8        29.90F WCI  29
6HR MIN TEMP:  35; 6HR MAX TEMP:  39;

KIRKSVILLE     CLOUDY    37  29  72 SW14      29.89F WCI  28
6HR MIN TEMP:  35; 6HR MAX TEMP:  38;


$$
MOZ066>068-077>081-088>096-101>105-160700-
...SOUTHWEST MISSOURI...

CITY           SKY/WX    TMP DP  RH WIND       PRES   REMARKS
SPRINGFIELD    CLEAR     32  25  75 S10       30.04F WCI  24
6HR MIN TEMP:  30; 6HR MAX TEMP:  36;

JOPLIN         CLEAR     40  25  55 S15       30.05F
6HR MIN TEMP:  34; 6HR MAX TEMP:  41;

BRANSON        MOCLDY    37  25  60 SW9       30.09F

$$
MOZ032>034-039>042-045>050-055>058-069>072-160700-
...CENTRAL MISSOURI...

CITY           SKY/WX    TMP DP  RH WIND       PRES   REMARKS
COLUMBIA       CLEAR     35  25  66 S12       29.99F WCI  27
6HR MIN TEMP:  32; 6HR MAX TEMP:  35;

JEFFERSON CITY CLEAR     35  24  64 SE6       30.01F
6HR MIN TEMP:  34; 6HR MAX TEMP:  40;

ROLLA          CLEAR     33  24  69 SW12      30.03F WCI  24
6HR MIN TEMP:  30; 6HR MAX TEMP:  34;

SEDALIA        CLEAR     40  27  59 SW18      29.98F
6HR MIN TEMP:  37; 6HR MAX TEMP:  40;

WHITEMAN AFB   CLEAR     38  23  55 SW16G24   29.92F WCI  29
WARRENSBURG    PTCLDY    36  25  64 S10       29.97S WCI  28
OSAGE BEACH    CLEAR     34  24  67 S6        30.03F WCI  29

$$
MOZ051-052-059>065-160700-
...EAST CENTRAL MISSOURI...

CITY           SKY/WX    TMP DP  RH WIND       PRES   REMARKS
ST LOUIS INTL  CLEAR     36  26  67 SW10      30.04F WCI  28
6HR MIN TEMP:  35; 6HR MAX TEMP:  39;

SPIRIT OF STL  CLEAR     29  23  78 NW3       30.03F
6HR MIN TEMP:  25; 6HR MAX TEMP:  38;

ST CHARLES     CLEAR     31  22  69 S6        30.03F WCI  25
6HR MIN TEMP:  28; 6HR MAX TEMP:  35;


$$
MOZ072>076-082>087-097>100-106>115-160700-
...SOUTH CENTRAL AND SOUTHEAST MISSOURI...

CITY           SKY/WX    TMP DP  RH WIND       PRES   REMARKS
CAPE GIRARDEAU CLEAR     32  26  78 SW6       30.12F WCI  26
6HR MIN TEMP:  31; 6HR MAX TEMP:  41;

FARMINGTON     CLEAR     29  24  82 CALM      30.08F
6HR MIN TEMP:  27; 6HR MAX TEMP:  38;

POPLAR BLUFF   PTCLDY    32  28  85 S6        30.13F WCI  26
6HR MIN TEMP:  32; 6HR MAX TEMP:  41;

WEST PLAINS    CLOUDY    33  25  72 SW6       30.09F WCI  28
6HR MIN TEMP:  30; 6HR MAX TEMP:  37;


$$



USA.gov is the U.S. government's official web portal to all federal, state and local government web resources and services.